www.pogodaiklimat.ru

Погода и климат >> Архив погоды >> Россия >> Якутия >> Тюмяти


ПОГОДА в Тюмяти

  • Прогноз погоды в Тюмяти
  • Монитор погоды в Тюмяти

АРХИВ ПОГОДЫ в Тюмяти

Время (UTC), дата Ветер
(напр.,м/с)
 
Видим.   Явления Облачность Т
(С)
Тd
(С)
f
(%)
Тe
(С)
Тes
(С)
Комфортность P
(гПа)
Po
(гПа)
Тmin
(С)
Tmax
(С)
R
(мм)
R24
(мм)
S
(см)
03 11.06 ЮВ 8-10
{14}
20 км 10/6 600 м
[Sc Ac trans]
+18.3 +10.1 59 +18 +18 994.5 991.4
06 11.06 Ю 9-11
{18}
20 км 10/6 600 м
[Sc Ac trans]
+20.5 +9.7 50 +21 +22 комфорт 994.0 990.9
09 11.06 Ю 7-10
{19}
20 км 10/4 600 м
[Sc Ac trans]
+20.6 +9.6 49 +22 +22 комфорт 994.2 991.1
12 11.06 Ю 7 20 км 10/5 600 м
[Sc Ac trans Ci fib]
+19.0 +10.7 59 +19 +19 995.3 992.2 +22.1
15 11.06 Ю 5 20 км 8/3 600 м
[Sc Ac trans Ci fib]
+17.2 +9.7 61 +17 +17 995.8 992.7
18 11.06 Ю 6 20 км 8/5 600 м
[Sc Ac trans Ci fib]
+14.0 +10.2 78 +12 +12 995.8 992.7
21 11.06 Ю 4 20 км 10/0
[Ac As]
+14.5 +9.7 73 +13 +14 995.9 992.8
00 12.06 Ю 5 20 км 10/0
[Ac lent Cs]
+18.2 +8.6 53 +18 +20 995.0 991.9 +12.7
03 12.06 Ю 8-10
{13}
20 км 10/0
[Ac lent Cs]
+19.3 +7.4 46 +19 +20 993.5 990.4
06 12.06 Ю 9-11
{14}
20 км 10/3 600 м
[Sc Ac trans Ci fib]
+21.5 +7.4 40 +22 +23 комфорт 992.5 989.5
09 12.06 Ю 8-10
{13}
20 км 10/0
[Ac trans Cs]
+20.5 +8.5 46 +21 +22 комфорт 992.9 989.8
12 12.06 Ю 3
{11}
10 км слаб. дождь 10/0
[As op]
+18.5 +9.0 54 +19 +19 995.3 992.2 +23.4 0.0
15 12.06 З 6 20 км {дождь} 10/10 600 м
[Sc]
+3.9 +2.4 90 -2 -2 998.8 995.5
18 12.06 З 4 20 км {дождь} 10/10 600 м
[Sc]
+2.6 +1.8 94 -2 -2 1001.6 998.3
21 12.06 З 3 10 км слаб. дождь 10/10 300 м
[Sc]
+2.0 +1.2 94 -2 -2 1004.5 1001.2
00 13.06 З 3 20 км {дождь} 10/10 600 м
[Sc]
+2.4 +0.8 89 -2 -2 1007.0 1003.7 0.3
03 13.06 З 4 20 км 10/10 600 м
[Cb cap]
+3.2 0.0 80 -1 -1 1009.8 1006.5
06 13.06 СЗ 5 20 км 10/10 600 м
[Cb cap]
+5.4 +0.2 69 +1 +1 1011.4 1008.1
09 13.06 СЗ 3 20 км 10/10 600 м
[Cb cap]
+6.8 +0.1 62 +4 +4 1013.9 1010.6
12 13.06 штиль 0 20 км 8/3 600 м
[Sc Ac trans Ci fib]
+7.2 +0.1 61 +7 +7 1013.5 1010.2 +8.2
15 13.06 Ю 2 20 км 8/0
[Ac trans]
+6.0 -0.3 64 +4 +4 1014.3 1011.0
18 13.06 штиль 0 20 км 10/0
[Ac trans Ci fib]
+4.8 +0.1 72 +4 +4 1014.8 1011.5
21 13.06 штиль 0 20 км 6/0
[Ac trans]
+5.6 +1.6 75 +5 +7 1014.3 1011.0
00 14.06 ЮВ 4 20 км 9/0
[Ac trans]
+7.8 +0.5 60 +5 +7 1014.1 1010.8 +3.4
03 14.06 ЮВ 7
{10}
20 км 8/0
[Ac trans]
+10.0 +2.5 60 +7 +8 1011.6 1008.4
06 14.06 ЮВ 9-10
{12}
20 км 4/0
[Ac trans Ci fib]
+12.0 +3.2 55 +9 +10 1009.5 1006.3
09 14.06 Ю 7-10
{13}
20 км 1/0
[Ci fib]
+14.2 +1.6 42 +12 +13 1008.0 1004.8
12 14.06 ЮВ 8
{12}
20 км 8/0
[Ci fib]
+13.5 +4.1 53 +11 +11 1006.8 1003.6 +16.3
15 14.06 ЮВ 5 20 км 3/0
[Ci fib]
+11.4 +4.8 64 +9 +9 1006.5 1003.3
18 14.06 Ю 6 20 км 6/0
[Ci fib]
+11.4 +4.6 63 +9 +9 1005.2 1002.0
21 14.06 Ю 5 20 км 10/0
[Ci fib]
+13.5 +3.5 51 +12 +13 1004.2 1001.0
00 15.06 Ю 9-11
{13}
20 км 8/0
[Ci fib]
+16.6 +4.3 44 +15 +16 1002.8 999.7 +10.1
03 15.06 Ю 8-10
{4/}
20 км 4/0
[Ac trans Ci fib]
+21.5 +5.2 34 +22 +23 комфорт 1001.4 998.3
06 15.06 Ю 8-11
{14}
20 км 10/0
[Ci fib]
+22.1 +5.9 35 +23 +24 комфорт 1000.9 997.8
09 15.06 Ю 7
{12}
20 км 3/0
[Ci fib]
+25.5 +5.7 28 +25 +26 комфорт 1000.6 997.6
12 15.06 штиль 0
{10}
20 км 10/0
[Ac As]
+17.9 +10.7 63 +18 +18 1003.0 999.9 +25.9
15 15.06 Ю 3 20 км 10/0
[Ac As]
+14.9 +11.4 80 +14 +14 1002.6 999.5
18 15.06 ЮВ 1 20 км 10/0
[Ac As]
+16.5 +8.5 59 +17 +18 1002.6 999.5
21 15.06 ЮЗ 3 10 км слаб. дождь 10/0
[Ac As]
+16.9 +8.8 59 +17 +17 1003.1 1000.0
00 16.06 ЮЗ 3 10 км слаб. дождь 10/0
[Ac As]
+13.8 +11.9 88 +13 +14 1005.7 1002.5 +13.7 0.7
03 16.06 Ю 2 10 км слаб. дождь 10/0
[Ac As]
+12.2 +10.7 91 +11 +14 1007.9 1004.7 +12.2
06 16.06 Ю 2 20 км {дождь} 10/0
[Ac As]
+12.8 +9.7 81 +12 +14 1009.9 1006.7
09 16.06 ЮВ 2 20 км 8/4 600 м
[Sc Ac trans]
+14.3 +8.6 69 +14 +15 1011.5 1008.3
12 16.06 С 3 20 км 8/4 600 м
[Sc Ac trans Ci fib]
+10.5 +1.7 54 +9 +9 1015.5 1012.3 +15.2 2
15 16.06 СВ 2 20 км 4/0
[Ac trans Ci fib]
+9.6 +2.0 59 +8 +9 1017.6 1014.3
18 16.06 С 3 20 км 3/0
[Ac trans]
+8.0 +1.7 64 +6 +6 1019.4 1016.1
21 16.06 В 1 20 км 3/0
[Ac trans]
+10.0 +2.5 60 +10 +12 1020.2 1016.9
00 17.06 В 1 20 км 6/0
[Ac trans Ci fib]
+12.5 +2.7 51 +13 +19 1020.7 1017.5 +7.4
03 17.06 В 1 20 км 8/5 600 м
[Sc Ci fib]
+13.8 +4.0 52 +14 +19 1019.6 1016.4
06 17.06 ЮВ 2 20 км 8/8 600 м
[Sc]
+16.6 +1.5 36 +17 +19 1018.1 1014.9
09 17.06 ЮВ 2 20 км 5/1 600 м
[Sc Ac trans Ci fib]
+17.7 +5.9 46 +18 +21 1016.9 1013.7
12 17.06 ЮВ 2 20 км 6/0
[Ac trans Ci fib]
+17.3 +6.1 48 +18 +19 1015.9 1012.7 +18.4
15 17.06 ЮВ 8-10
{11}
20 км 4/0
[Ac trans Ci fib]
+13.0 +6.3 64 +10 +10 1015.7 1012.5
18 17.06 ЮВ 2
{11}
20 км 8/0
[Ci fib]
+10.2 +3.9 65 +9 +9 1016.2 1013.0
21 17.06 ЮВ 2 20 км 4/0
[Ci fib]
+12.1 +5.9 66 +11 +13 1015.3 1012.1
00 18.06 ЮВ 4 20 км 8/0
[Ci fib]
+15.7 +6.3 54 +15 +19 1013.1 1009.9 +10.0

 

Местоположение метеостанции Тюмяти (Якутия, Россия): широта 71.92 долгота 123.50 высота над уровнем моря 27 м.

В архиве по умолчанию представлена погода в Тюмяти за последнюю неделю. Архивные данные за месяц целиком и за предыдущие месяцы, начиная с января 2011 года, Вы можете получить, выбрав интересующий диапазон дат из раскрывающегося списка и нажав кнопку "Ввод!".


*Определитесь, кто Вы:
робот инопланетянин человек

Внимание! Время в таблицах - всемирное. Для получения местного времени необходимо прибавить поправку, которая равна 9 ч.

Смотрите также архив погоды в соседних городах и на ближайших метеорологических станциях:

Погода на Столб Острове (Якутия, Россия) (109 км)
Погода на Усть-Оленеке (Якутия, Россия) (173 км)
Погода в Тикси (Якутия, Россия) (192 км)
Погода на Мысе Быков (Якутия, Россия) (193 км)
Погода в Кюсюре (Якутия, Россия) (196 км)
Погода в Саскылахе (Якутия, Россия) (327 км)
Погода в Джарджане (Якутия, Россия) (355 км)
Погода в Анабаре (Якутия, Россия) (363 км)
Погода в Джалинде (Якутия, Россия) (400 км)
Погода в Сухане (Якутия, Россия) (415 км)

Пояснения к столбцам:

Ветер - указаны скорость ветра в м/с - средняя за 10 мин, порывы в срок и между сроками (в фигурных скобках) и направление, откуда дует ветер: С - северный, СВ - северо-восточный, В - восточный, ЮВ - юго-восточный, Ю - южный, ЮЗ - юго-западный, З - западный, СЗ - северо-западный.
Видимость - горизонтальная дальность видимости в метрах или километрах. При видимости от 1 до 10 км при отсутствии осадков обычно наблюдается дымка, при ухудшении видимости до 1 км и менее - туман. В сухую погоду видимость может ухудшаться дымом, пылью или мглою.
Явления - указаны атмосферные явления, наблюдавшиеся в срок или в последний час перед сроком; фигурными скобками обозначены явления, наблюдавшиеся между сроками (за 1-3 часа до срока); квадратными скобками обозначены град или гололедные отложения с указанием их диаметра в мм.
Облачность - указаны через наклонную черту общая и нижняя облачность в баллах и высота нижней границы облаков в метрах; квадратными скобками обозначены формы облаков: Ci - перистые, Cs - перисто-слоистые, Cc - перисто-кучевые, Ac - высококучевые, As - высокослоистые, Sc - слоисто-кучевые, Ns - слоисто-дождевые, Cu - кучевые, Cb - кучево-дождевые. Подробнее классификацию облаков см. в Атласе облаков (PDF).
T - Температура воздуха - температура, измеренная на высоте 2 м над землей.
Td - Температура точки росы - температура, при понижении до которой содержащийся в воздухе водяной пар достигнет насыщения.
f - Относительная влажность воздуха - влажноcть воздуха, измеренная на высоте 2 м над землей.
Te - Эффективная температура - температура, которую ощущает одетый по сезону человек в тени. Характеристика душности погоды. При расчете учитывается влияние влажности воздуха и скорости ветра на теплоощущения человека.
Tes - Эффективная температура на солнце - температура, которую ощущает человек, с поправкой на солнечный нагрев. Характеристика знойности погоды. Зависит от высоты солнца над горизонтом, облачности и скорости ветра. Ночью, в пасмурную погоду, а также при ветре 12 м/с и более поправка равна нулю.
P - Атмосферное давление - приведенное к уровню моря атмосферное давление.
Po - Атмосферное давление - измеренное на уровне метеостанции атмосферное давление.
Tmin - Минимальная температура - минимум температуры воздуха на высоте 2 м над землей.
Tmax - Максимальная температура - максимум температуры воздуха на высоте 2 м над землей.
R - Количество осадков - Количество выпавших осадков за период времени, мм. При наведении курсора мыши на число - период времени, за который выпало указанное количество осадков.
R24 - Количество осадков - Количество выпавших осадков за 24 часа, мм.
S - Снежный покров - Высота снежного покрова, см. При наведении курсора мыши на число - состояние снежного покрова и степень покрытия местности в баллах.